Location: Unspecified
(22.6800°N, 112.2000°E)
Time: 09:47:05
(UTC+08:00)

S-56A Canister/Altair - Pass Details

Date: 31 July 2021
Orbit: 632 x 2500 km, 38.9° (Epoch: 27 September)

Event Time Altitude Azimuth Distance (km) Brightness Sun altitude
Rises 19:58:22 0° 300° (WNW) 6,174 14.4 -10.5°
Reaches altitude 10° 20:02:43 10° 306° (NW) 5,155 13.2 -11.4°
Maximum altitude 20:17:06 51° 19° (NNE) 2,625 10.2 -14.4°
Enters shadow 20:26:50 15° 90° (E) 3,742 10.5 -16.4°
Drops below altitude 10° 20:28:06 10° 93° (E) 4,039 - -16.7°
Sets 20:31:03 0° 98° (E) 4,793 - -17.2°
